Simultaneous Nadir Overpasses (SNOs) Predictions

Prediction of SNOs between METOP-B and TERRA Satellite Orbit:

Table of predicted SNOs for the next 14.0 days since TLE Epoch: 4/5/2025
Index Date (METOP-B) Time (METOP-B) Lat,Lon (METOP-B) SZA (METOP-B ) Date (TERRA) Time (TERRA) Lat,Lon (TERRA) SZA (TERRA ) Distance(km) Time Diff (sec)
1 04/07/2025 00:45:11 -78.47, -6.43 108.42 04/07/2025 00:46:13 -78.47, -6.41 108.42 0.29 62
2 04/07/2025 01:35:41 78.88, 163.35 72.03 04/07/2025 01:35:23 78.88, 163.39 72.03 0.93 18
3 04/09/2025 14:24:49 78.51, -31.16 70.67 04/09/2025 14:25:29 78.52, -31.06 70.68 2.32 40
4 04/09/2025 15:15:17 -79.01, 139.25 108.78 04/09/2025 15:14:37 -79.00, 139.17 108.80 1.88 40
5 04/12/2025 04:04:26 -78.64, -55.35 110.13 04/12/2025 04:04:43 -78.65, -55.27 110.12 1.94 17
6 04/12/2025 04:54:57 79.00, 114.22 70.27 04/12/2025 04:53:54 79.00, 114.29 70.27 1.53 63
7 04/14/2025 16:53:47 -77.75, 107.67 112.00 04/14/2025 16:55:01 -77.70, 107.84 112.05 6.91 74
8 04/14/2025 17:44:02 78.77, -79.53 69.09 04/14/2025 17:43:56 78.77, -79.51 69.09 0.50 6
9 04/17/2025 06:33:09 78.44, 86.26 67.83 04/17/2025 06:33:59 78.44, 86.31 67.84 1.34 50



Historial Predications of SNOs between METOP-B and TERRA
